AUA701 LOWW-ELLX

Flight info

Callsign AUA701
Flight time N/A
Altitude 34000
Route MEDIX1C/29 MEDIX DCT RENKA/N0457F360 L610 STAUB/N0414F240 L610 AMOSA Z104 MISGI T894 BITBU Z110 BETEX
Aircraft A320/M-SDE3FGHIRWY/LB1

Departure

Time N/A
Airport Vienna International Airport (LOWW)

Arrival

Time 2026-05-07 15:16
Airport Luxembourg-Findel International Airport (ELLX)
Time Latitude Longitude Altitude Speed Heading
2026-05-07 14:53 49.90954 8.19709 34036 ft 439 kts 283°
2026-05-07 14:54 49.92347 8.10487 34038 ft 439 kts 283°
2026-05-07 14:54 49.93730 8.01258 34039 ft 439 kts 283°
2026-05-07 14:55 49.95146 7.92106 34037 ft 439 kts 285°
2026-05-07 14:55 49.96849 7.83014 34037 ft 438 kts 287°
2026-05-07 14:56 49.98652 7.73961 34039 ft 438 kts 287°
2026-05-07 14:56 50.00482 7.64929 34037 ft 438 kts 288°
2026-05-07 14:57 50.02369 7.55918 34040 ft 438 kts 288°
2026-05-07 14:57 50.04231 7.46906 33993 ft 438 kts 288°
2026-05-07 14:58 50.05151 7.42383 33701 ft 438 kts 288°
2026-05-07 14:58 50.06064 7.37864 33413 ft 438 kts 288°
2026-05-07 14:58 50.06667 7.34866 32778 ft 439 kts 287°
2026-05-07 14:58 50.07520 7.30274 31690 ft 443 kts 283°
2026-05-07 14:59 50.07980 7.25530 30635 ft 445 kts 275°
2026-05-07 14:59 50.08185 7.20699 29392 ft 448 kts 274°
2026-05-07 14:59 50.08387 7.15853 28193 ft 449 kts 274°
2026-05-07 14:59 50.08588 7.11002 26953 ft 450 kts 274°
2026-05-07 15:00 50.08787 7.06156 26200 ft 443 kts 274°
2026-05-07 15:00 50.08983 7.01404 25437 ft 436 kts 274°
2026-05-07 15:00 50.09177 6.96719 24671 ft 432 kts 273°
2026-05-07 15:00 50.09368 6.92076 23915 ft 428 kts 273°
2026-05-07 15:01 50.09519 6.87473 23106 ft 424 kts 269°
2026-05-07 15:01 50.09408 6.82920 22392 ft 418 kts 264°
2026-05-07 15:01 50.08879 6.78496 21681 ft 413 kts 253°
2026-05-07 15:01 50.07867 6.74414 21014 ft 409 kts 244°
2026-05-07 15:02 50.06376 6.70609 20371 ft 405 kts 233°
2026-05-07 15:02 50.04596 6.67320 19757 ft 401 kts 229°
2026-05-07 15:02 50.02764 6.64071 19165 ft 398 kts 229°
2026-05-07 15:02 50.00946 6.60848 18591 ft 394 kts 229°
2026-05-07 15:03 49.99086 6.57739 17993 ft 392 kts 223°
2026-05-07 15:03 49.96942 6.55162 17438 ft 388 kts 213°
2026-05-07 15:03 49.94588 6.53141 16866 ft 385 kts 208°
2026-05-07 15:03 49.92228 6.51226 16294 ft 381 kts 208°
2026-05-07 15:04 49.89888 6.49318 15716 ft 378 kts 208°
2026-05-07 15:04 49.87570 6.47406 15131 ft 376 kts 211°
2026-05-07 15:04 49.85514 6.44963 14523 ft 373 kts 227°
2026-05-07 15:04 49.84001 6.41736 13918 ft 370 kts 243°
2026-05-07 15:05 49.83149 6.38011 13232 ft 368 kts 259°
2026-05-07 15:05 49.83027 6.34100 12885 ft 358 kts 275°
2026-05-07 15:05 49.83488 6.30403 12757 ft 343 kts 283°
2026-05-07 15:05 49.84021 6.26890 12736 ft 331 kts 283°
2026-05-07 15:06 49.84542 6.23395 12367 ft 332 kts 283°
2026-05-07 15:06 49.85061 6.19961 12025 ft 319 kts 283°
2026-05-07 15:06 49.85447 6.16681 11675 ft 300 kts 272°
2026-05-07 15:06 49.85221 6.13554 11245 ft 290 kts 251°
2026-05-07 15:07 49.84254 6.10916 10690 ft 285 kts 228°
2026-05-07 15:07 49.82679 6.09078 10012 ft 285 kts 210°
2026-05-07 15:07 49.80923 6.07676 9477 ft 285 kts 206°
2026-05-07 15:07 49.79140 6.06356 9140 ft 282 kts 208°
2026-05-07 15:08 49.77423 6.04877 8721 ft 282 kts 210°
2026-05-07 15:08 49.75710 6.03410 8344 ft 280 kts 210°
2026-05-07 15:08 49.74024 6.01927 7998 ft 277 kts 210°
2026-05-07 15:08 49.72345 6.00461 7575 ft 277 kts 210°
2026-05-07 15:09 49.70668 5.98998 7154 ft 276 kts 210°
2026-05-07 15:09 49.69013 5.97497 6706 ft 276 kts 211°
2026-05-07 15:09 49.67390 5.95996 6217 ft 266 kts 211°
2026-05-07 15:09 49.65847 5.94584 5939 ft 249 kts 210°
2026-05-07 15:10 49.64393 5.93300 5660 ft 234 kts 209°
2026-05-07 15:10 49.62989 5.92103 5154 ft 231 kts 208°
2026-05-07 15:10 49.61548 5.90976 4589 ft 232 kts 200°
2026-05-07 15:10 49.59972 5.90488 4235 ft 231 kts 179°
2026-05-07 15:11 49.58450 5.91098 3977 ft 226 kts 149°
2026-05-07 15:11 49.57174 5.92472 3668 ft 222 kts 143°
2026-05-07 15:11 49.55966 5.93885 3406 ft 219 kts 141°
2026-05-07 15:11 49.54942 5.95521 3252 ft 209 kts 118°
2026-05-07 15:12 49.54522 5.97589 3103 ft 198 kts 91°
2026-05-07 15:12 49.54755 5.99550 3091 ft 181 kts 69°
2026-05-07 15:12 49.55277 6.01341 2943 ft 186 kts 61°
2026-05-07 15:12 49.55937 6.03038 2934 ft 182 kts 59°
2026-05-07 15:13 49.56558 6.04722 2924 ft 182 kts 59°
2026-05-07 15:13 49.57174 6.06378 2881 ft 170 kts 59°
2026-05-07 15:13 49.57739 6.07868 2794 ft 150 kts 59°
2026-05-07 15:13 49.58267 6.09222 2589 ft 146 kts 60°
2026-05-07 15:14 49.58742 6.10584 2392 ft 143 kts 62°
2026-05-07 15:14 49.59218 6.11922 2183 ft 141 kts 59°
2026-05-07 15:14 49.59717 6.13213 1995 ft 140 kts 59°
2026-05-07 15:14 49.60206 6.14520 1821 ft 141 kts 61°
2026-05-07 15:15 49.60678 6.15843 1649 ft 141 kts 59°
2026-05-07 15:15 49.61157 6.17119 1441 ft 134 kts 61°
2026-05-07 15:15 49.61612 6.18361 1277 ft 133 kts 60°
2026-05-07 15:15 49.62050 6.19557 1223 ft 116 kts 60°
2026-05-07 15:16 49.62381 6.20448 1219 ft 84 kts 60°
2026-05-07 15:16 49.62622 6.21096 1219 ft 59 kts 60°
2026-05-07 15:16 49.62808 6.21598 1219 ft 49 kts 60°
2026-05-07 15:16 49.62955 6.21988 1219 ft 38 kts 60°
2026-05-07 15:17 49.63019 6.22142 1219 ft 6 kts 17°
2026-05-07 15:17 49.63058 6.22128 1219 ft 5 kts 330°
2026-05-07 15:17 49.63102 6.22088 1219 ft 11 kts 330°
2026-05-07 15:17 49.63170 6.22026 1219 ft 11 kts 324°
2026-05-07 15:18 49.63182 6.21929 1218 ft 9 kts 303°
2026-05-07 15:18 49.63233 6.21874 1218 ft 11 kts 328°
2026-05-07 15:18 49.63301 6.21809 1218 ft 5 kts 327°
2026-05-07 15:18 49.63327 6.21781 1218 ft 4 kts 325°
2026-05-07 15:19 49.63349 6.21758 1218 ft 3 kts 328°
2026-05-07 15:19 49.63367 6.21743 1218 ft 2 kts 330°
2026-05-07 15:19 49.63372 6.21738 1219 ft 0 kts 330°